When you browse on this site, cookies collect data to enhance your experience and personalize the content and advertising you see.
Visit our Privacy Policy to learn more. By continuing to use the site, you agree to this use of cookies and data.
  • In Österreich
  • Länderverzeichnis
  • Für 7 Tage
  • Wassertemperatur
  • Satellitenkarten
  • Wetterkarte
  • News
  • Widgets
  • user-avatar
    Anmelden

    Stündliche Wetter Tschachansur

    Heute, 21 April, Sonntag

    Zeit Temperatur Niederschläge Wind Luftdruck Luftfeuchtigkeit
    00:00 +34°C° 0 mm 3 m/S 711 mmHg 16%
    01:00 +34°C° 0 mm 4 m/S 711 mmHg 16%
    02:00 +33°C° 0 mm 3 m/S 711 mmHg 17%
    03:00 +31°C° 0 mm 3 m/S 711 mmHg 19%
    04:00 +30°C° 0 mm 3 m/S 711 mmHg 20%
    05:00 +30°C° 0 mm 4 m/S 712 mmHg 20%
    06:00 +30°C° 0 mm 5 m/S 713 mmHg 20%
    07:00 +30°C° 0 mm 5 m/S 713 mmHg 19%
    08:00 +32°C° 0 mm 6 m/S 714 mmHg 21%
    09:00 +32°C° 0 mm 7 m/S 714 mmHg 23%
    10:00 +32°C° 0 mm 8 m/S 714 mmHg 24%
    11:00 +34°C° 0 mm 8 m/S 714 mmHg 20%
    12:00 +35°C° 0 mm 7 m/S 714 mmHg 15%
    13:00 +38°C° 0 mm 7 m/S 714 mmHg 10%
    14:00 +37°C° 0 mm 5 m/S 714 mmHg 10%
    15:00 +38°C° 0 mm 4 m/S 714 mmHg 10%
    16:00 +38°C° 0 mm 3 m/S 713 mmHg 9%
    17:00 +37°C° 0 mm 3 m/S 713 mmHg 11%
    18:00 +36°C° 0 mm 3 m/S 713 mmHg 13%
    19:00 +35°C° 0 mm 4 m/S 713 mmHg 15%
    20:00 +33°C° 0 mm 4 m/S 713 mmHg 18%
    21:00 +32°C° 0 mm 4 m/S 714 mmHg 21%
    22:00 +30°C° 0 mm 5 m/S 714 mmHg 24%
    23:00 +29°C° 0 mm 5 m/S 714 mmHg 28%

    Morgen, 22 April, Montag

    Zeit Temperatur Niederschläge Wind Luftdruck Luftfeuchtigkeit
    00:00 +28°C° 0 mm 6 m/S 714 mmHg 32%
    01:00 +26°C° 0 mm 7 m/S 713 mmHg 36%
    02:00 +26°C° 0 mm 6 m/S 713 mmHg 38%
    03:00 +24°C° 0 mm 6 m/S 713 mmHg 40%
    04:00 +23°C° 0 mm 6 m/S 713 mmHg 42%
    05:00 +23°C° 0 mm 5 m/S 714 mmHg 42%
    06:00 +23°C° 0 mm 5 m/S 714 mmHg 42%
    07:00 +23°C° 0 mm 4 m/S 715 mmHg 42%
    08:00 +25°C° 0 mm 4 m/S 715 mmHg 38%
    09:00 +27°C° 0 mm 3 m/S 715 mmHg 33%
    10:00 +29°C° 0 mm 3 m/S 716 mmHg 29%
    11:00 +31°C° 0 mm 2 m/S 715 mmHg 25%
    12:00 +32°C° 0 mm 1 m/S 715 mmHg 22%
    13:00 +34°C° 0 mm 1 m/S 715 mmHg 19%
    14:00 +35°C° 0 mm 1 m/S 714 mmHg 18%
    15:00 +36°C° 0 mm 2 m/S 714 mmHg 16%
    16:00 +37°C° 0 mm 2 m/S 713 mmHg 15%
    17:00 +37°C° 0 mm 2 m/S 713 mmHg 16%
    18:00 +37°C° 0 mm 2 m/S 713 mmHg 16%
    19:00 +37°C° 0 mm 2 m/S 713 mmHg 17%
    20:00 +36°C° 0 mm 2 m/S 714 mmHg 18%
    21:00 +35°C° 0 mm 2 m/S 714 mmHg 19%
    22:00 +35°C° 0 mm 2 m/S 714 mmHg 20%
    23:00 +34°C° 0 mm 2 m/S 714 mmHg 21%

    übermorgen, 23 April, Dienstag

    Zeit Temperatur Niederschläge Wind Luftdruck Luftfeuchtigkeit
    00:00 +34°C° 0 mm 2 m/S 714 mmHg 22%
    01:00 +32°C° 0 mm 2 m/S 714 mmHg 22%
    02:00 +32°C° 0.1 mm 2 m/S 713 mmHg 24%
    03:00 +31°C° 0.1 mm 2 m/S 713 mmHg 25%
    04:00 +31°C° 0.1 mm 2 m/S 713 mmHg 26%
    05:00 +31°C° 0 mm 2 m/S 714 mmHg 25%
    06:00 +31°C° 0 mm 1 m/S 714 mmHg 25%
    07:00 +30°C° 0 mm 0 m/S 714 mmHg 24%
    08:00 +33°C° 0.1 mm 1 m/S 715 mmHg 23%
    09:00 +34°C° 0.1 mm 1 m/S 715 mmHg 22%
    10:00 +35°C° 0.1 mm 1 m/S 715 mmHg 21%
    11:00 +37°C° 0 mm 2 m/S 715 mmHg 19%
    12:00 +38°C° 0 mm 3 m/S 714 mmHg 17%
    13:00 +40°C° 0 mm 5 m/S 714 mmHg 15%
    14:00 +41°C° 0 mm 5 m/S 713 mmHg 14%
    15:00 +41°C° 0 mm 5 m/S 713 mmHg 14%
    16:00 +41°C° 0 mm 5 m/S 712 mmHg 13%
    17:00 +37°C° 0.6 mm 5 m/S 712 mmHg 20%
    18:00 +35°C° 0.6 mm 5 m/S 712 mmHg 27%
    19:00 +32°C° 0.6 mm 4 m/S 712 mmHg 34%
    20:00 +31°C° 0 mm 3 m/S 712 mmHg 34%
    21:00 +31°C° 0 mm 2 m/S 712 mmHg 33%
    22:00 +31°C° 0 mm 1 m/S 713 mmHg 33%
    23:00 +31°C° 0 mm 2 m/S 712 mmHg 34%

    24 April, Mittwoch

    Zeit Temperatur Niederschläge Wind Luftdruck Luftfeuchtigkeit
    00:00 +31°C° 0 mm 3 m/S 712 mmHg 34%
    01:00 +30°C° 0 mm 4 m/S 712 mmHg 34%
    02:00 +28°C° 0 mm 6 m/S 712 mmHg 41%
    03:00 +24°C° 0 mm 9 m/S 712 mmHg 49%
    04:00 +21°C° 0 mm 11 m/S 711 mmHg 56%
    05:00 +21°C° 0 mm 12 m/S 713 mmHg 53%
    06:00 +21°C° 0 mm 12 m/S 714 mmHg 50%
    07:00 +19°C° 0 mm 12 m/S 715 mmHg 46%
    08:00 +20°C° 0 mm 13 m/S 716 mmHg 41%
    09:00 +22°C° 0 mm 13 m/S 717 mmHg 37%
    10:00 +23°C° 0 mm 13 m/S 718 mmHg 32%
    11:00 +24°C° 0 mm 13 m/S 718 mmHg 29%
    12:00 +26°C° 0 mm 13 m/S 718 mmHg 27%
    13:00 +26°C° 0 mm 12 m/S 718 mmHg 25%
    14:00 +26°C° 0 mm 12 m/S 718 mmHg 23%
    15:00 +26°C° 0 mm 11 m/S 718 mmHg 22%
    16:00 +26°C° 0 mm 11 m/S 718 mmHg 21%
    17:00 +24°C° 0 mm 10 m/S 718 mmHg 22%
    18:00 +23°C° 0 mm 10 m/S 718 mmHg 23%
    19:00 +22°C° 0 mm 9 m/S 719 mmHg 24%
    20:00 +22°C° 0 mm 9 m/S 719 mmHg 25%
    21:00 +21°C° 0 mm 9 m/S 719 mmHg 26%
    22:00 +19°C° 0 mm 10 m/S 720 mmHg 27%
    23:00 +18°C° 0 mm 10 m/S 720 mmHg 28%

    25 April, Donnerstag

    Zeit Temperatur Niederschläge Wind Luftdruck Luftfeuchtigkeit
    00:00 +17°C° 0 mm 10 m/S 720 mmHg 30%
    01:00 +17°C° 0 mm 11 m/S 719 mmHg 31%
    02:00 +16°C° 0 mm 10 m/S 719 mmHg 33%
    03:00 +14°C° 0 mm 10 m/S 719 mmHg 35%
    04:00 +14°C° 0 mm 10 m/S 719 mmHg 36%
    05:00 +14°C° 0 mm 10 m/S 720 mmHg 37%
    06:00 +13°C° 0 mm 10 m/S 721 mmHg 37%
    07:00 +13°C° 0 mm 10 m/S 721 mmHg 37%
    08:00 +16°C° 0 mm 9 m/S 721 mmHg 33%
    09:00 +18°C° 0 mm 9 m/S 722 mmHg 30%
    10:00 +19°C° 0 mm 9 m/S 722 mmHg 26%
    11:00 +22°C° 0 mm 8 m/S 721 mmHg 22%
    12:00 +23°C° 0 mm 8 m/S 721 mmHg 19%
    13:00 +26°C° 0 mm 7 m/S 721 mmHg 16%
    14:00 +26°C° 0 mm 7 m/S 720 mmHg 15%
    15:00 +26°C° 0 mm 6 m/S 720 mmHg 15%
    16:00 +27°C° 0 mm 6 m/S 719 mmHg 14%
    17:00 +26°C° 0 mm 6 m/S 719 mmHg 15%
    18:00 +24°C° 0 mm 6 m/S 719 mmHg 17%
    19:00 +24°C° 0 mm 6 m/S 719 mmHg 18%
    20:00 +23°C° 0 mm 6 m/S 720 mmHg 20%
    21:00 +22°C° 0 mm 7 m/S 720 mmHg 22%
    22:00 +21°C° 0 mm 7 m/S 720 mmHg 24%
    23:00 +20°C° 0 mm 7 m/S 720 mmHg 27%

    26 April, Freitag

    Zeit Temperatur Niederschläge Wind Luftdruck Luftfeuchtigkeit
    00:00 +20°C° 0 mm 8 m/S 719 mmHg 30%
    01:00 +18°C° 0 mm 8 m/S 719 mmHg 32%
    02:00 +17°C° 0 mm 8 m/S 719 mmHg 33%
    03:00 +17°C° 0 mm 9 m/S 719 mmHg 34%
    04:00 +16°C° 0 mm 9 m/S 719 mmHg 34%
    05:00 +16°C° 0 mm 9 m/S 719 mmHg 34%
    06:00 +17°C° 0 mm 9 m/S 720 mmHg 33%
    07:00 +17°C° 0 mm 9 m/S 720 mmHg 33%
    08:00 +18°C° 0 mm 9 m/S 721 mmHg 28%
    09:00 +21°C° 0 mm 9 m/S 721 mmHg 23%
    10:00 +23°C° 0 mm 9 m/S 721 mmHg 19%
    11:00 +24°C° 0 mm 9 m/S 721 mmHg 17%
    12:00 +26°C° 0 mm 9 m/S 721 mmHg 15%
    13:00 +27°C° 0 mm 9 m/S 720 mmHg 14%
    14:00 +27°C° 0 mm 9 m/S 720 mmHg 14%
    15:00 +27°C° 0 mm 9 m/S 720 mmHg 14%
    16:00 +27°C° 0 mm 9 m/S 719 mmHg 14%
    17:00 +26°C° 0 mm 9 m/S 719 mmHg 15%
    18:00 +24°C° 0 mm 8 m/S 720 mmHg 16%
    19:00 +23°C° 0 mm 8 m/S 720 mmHg 17%
    20:00 +23°C° 0 mm 8 m/S 720 mmHg 19%
    21:00 +22°C° 0 mm 8 m/S 720 mmHg 20%
    22:00 +21°C° 0 mm 7 m/S 721 mmHg 22%
    23:00 +20°C° 0 mm 8 m/S 720 mmHg 24%
    Mehr zeigen